Regional Weather Roundup
Issued by NWS Green Bay, WI

Home | Current Version | Previous Version | Graphics & Text | Print | Product List | Glossary Off
Versions: 1 2 3 4 5 6 7 8 9 10 11 12 13 14 15 16 17 18 19 20 21 22 23 24 25 26 27 28 29 30 31 32 33 34 35 36 37 38 39 40 41 42 43 44 45 46 47 48 49 50

000
ASUS43 KGRB 010311
RWRGRB

NORTH-CENTRAL AND NORTHEAST WISCONSIN REGIONAL WEATHER ROUNDUP
NATIONAL WEATHER SERVICE GREEN BAY WI
1000 PM CDT FRI SEP 30 2016

WIZ005-009-010>012-018-019-010400-
NORTH CENTRAL WISCONSIN

CITY           SKY/WX    TMP DP  RH WIND       PRES   REMARKS
IRONWOOD       FOG       54  54 100 CALM      30.28F VSB 3/4
MANITOWISH WTR CLEAR     53  52  95 NE8       30.26S
ARBOR VITAE    CLEAR     57  52  85 NE3       30.26S
EAGLE RIVER    CLEAR     52  48  84 NE6       30.26S
LAND O LAKES   PTCLDY    54  50  87 NE5       30.29S
RHINELANDER    CLEAR     58  49  72 NE8       30.26S
PHILLIPS       CLEAR     55  53  92 NE7       30.24S
ANTIGO         PTCLDY    55  51  86 NE5       30.24S
TOMAHAWK       CLEAR     56  47  70 NE5       30.25S
MERRILL        CLEAR     55  49  81 NE6       30.23S
$$

WIZ013-073-010400-
NORTHEAST WISCONSIN

CITY           SKY/WX    TMP DP  RH WIND       PRES   REMARKS
IRON MOUNTAIN  CLOUDY    55  50  83 N6        30.25S
MARINETTE      CLOUDY    63  55  75 E17       30.21F
OCONTO         CLOUDY    62  55  78 NE6       30.19S
$$

WIZ017-030-035>037-045-010400-
CENTRAL WISCONSIN

CITY           SKY/WX    TMP DP  RH WIND       PRES   REMARKS
MEDFORD        CLOUDY    59  50  72 NE5       30.22S
WAUSAU         CLOUDY    60  51  72 NE6       30.20S
MOSINEE        CLOUDY    61  54  77 NE10      30.22S
MARSHFIELD     CLOUDY    62  52  69 NE8       30.20R
WISC RAPIDS    CLOUDY    61  54  77 E8        30.20S
STEVENS POINT  CLOUDY    59  51  75 E9        30.20S
WAUPACA        DRIZZLE   60  58  92 N5        30.19S
SHAWANO        CLOUDY    63  53  70 NE9       30.20S
CLINTONVILLE   CLOUDY    61  52  72 NE9       30.19S
WAUTOMA        CLOUDY    57  56  96 N7        30.18F
$$

WIZ038-039-048-051-010400-
FOX VALLEY

CITY           SKY/WX    TMP DP  RH WIND       PRES   REMARKS
NWS GREEN BAY  CLOUDY    62  60  93 NE16      30.18S
APPLETON       LGT RAIN  59  59 100 NE13      30.16F
OSHKOSH        LGT RAIN  59  58  96 NE16      30.14F FOG
FOND DU LAC    LGT RAIN  61  59  93 NE14      30.14F
$$

WIZ022-050-052-010400-
EAST CENTRAL WISCONSIN

CITY           SKY/WX    TMP DP  RH WIND       PRES   REMARKS
EPHRAIM        CLOUDY    61  55  81 E13G21    30.20S
WASHINGTON ISL CLOUDY    62  53  72 E9        30.22S
STURGEON BAY   CLOUDY    62  57  83 E12G18    30.20S
MANITOWOC      RAIN      61  59  93 NE6       30.16F FOG
SHEBOYGAN      HVY RAIN  60  59  96 NE13      30.14F FOG
$$

LMZ563-521-522-541>543-010400-
LAKESHORE

STATION/POSITION TIME  TEMP    WIND        PRES    VSBY  WAVE
                       AIR SEA DIR/SP/G                  HT/PER
                 (UTC) (F)     (DEG/KT/KT) (MB)    (MI)  (FT/S)
SHEBOYGAN LKSHOR 0300   61      50/ 14/ 16 1020.2F
KEWAUNEE LKSHORE 0200   63      40/  9/ 14 1021.1F
NORTHPORT PIER   0200   64      80/ 15/ 23 1023.0F
N MID LAKE BUOY  0250   64 65   90/ 23/ 27 1022.0F         5/ 5
SISTER BAY LKSHO 0208   64     120/ 12/ 21   N/A
CHAMBERS ISLAND  0200   63      40/ 14/ 18 1022.7F
MENOMINEE LKSHOR 0200   63      40/ 18/ 22 1022.1F
$$



USA.gov is the U.S. government's official web portal to all federal, state and local government web resources and services.